Lapse_Rate
5.2 5.2 5.2 5.2 5.3 5.3 5.5 5.6 5.6 5.7 5.7 5.7 5.4 5.4 5.4 5.5 5.6 5.7 6.0 5.9 5.9 6.2 6.2 6.3 6.1 5.7 5.7 5.9 5.9 5.9 6.1 7.6 7.2 7.0 6.8 7.0 7.2 6.4 5.7 5.4 5.4 5.4 5.4 5.0 4.7
5.4 5.4 5.3 5.3 5.2 5.3 5.4 5.5 5.6 5.7 5.7 5.7 5.5 5.3 5.4 5.4 5.7 5.8 5.9 5.9 5.9 6.1 6.5 6.8 6.3 5.4 5.7 5.4 5.9 6.6 7.0 7.4 7.4 7.2 7.1 6.7 6.3 5.9 5.9 5.9 5.7 5.3 5.1 4.7 4.8
5.5 5.4 5.4 5.5 5.4 5.4 5.4 5.5 5.5 5.6 5.8 5.8 5.7 5.3 5.3 5.3 5.5 5.9 6.0 5.8 5.9 6.2 6.7 6.7 6.0 6.2 5.9 5.9 6.5 6.5 6.6 7.3 7.4 7.3 7.2 6.6 6.2 5.7 5.7 5.5 5.6 5.8 4.9 4.5 4.6
5.5 5.5 5.5 5.6 5.5 5.5 5.5 5.5 5.6 5.6 5.7 5.8 5.8 5.6 5.3 5.1 5.1 5.5 5.9 5.8 5.9 6.2 6.3 6.3 5.9 6.4 5.9 6.3 6.5 6.1 6.3 6.9 7.0 7.2 7.2 7.1 6.5 6.3 5.8 5.5 5.5 5.3 4.9 4.7 4.5
5.5 5.6 5.6 5.6 5.7 5.6 5.7 5.6 5.6 5.6 5.7 5.7 5.7 5.5 5.3 5.3 5.4 5.5 5.8 5.8 5.9 6.0 6.0 6.6 6.1 6.6 6.7 6.8 6.4 5.8 6.5 6.5 6.8 7.0 7.1 6.7 6.5 6.4 5.8 5.6 5.6 5.4 4.8 4.7 4.6
5.6 5.7 5.6 5.7 5.7 5.8 5.8 5.8 5.7 5.7 5.7 5.7 5.6 5.5 5.3 5.3 5.4 5.5 5.5 5.6 5.9 6.6 6.3 6.0 6.3 6.6 6.6 7.2 6.8 6.5 6.5 6.4 6.3 6.8 6.8 6.4 6.2 6.4 5.8 5.8 5.9 5.5 4.7 4.6 4.5
5.7 5.7 5.6 5.8 5.8 5.8 5.9 6.0 5.9 5.8 5.7 5.7 5.6 5.3 5.3 5.4 5.4 5.7 5.6 5.5 5.8 6.5 6.4 6.3 6.6 6.5 6.6 6.9 6.8 6.6 7.0 6.9 6.7 6.4 6.5 6.3 6.3 6.2 5.8 5.6 5.6 5.4 5.2 4.7 4.7
5.9 5.8 5.8 5.8 5.8 5.8 6.0 6.2 6.1 6.0 5.8 5.7 5.5 5.2 5.3 5.7 5.4 6.1 5.8 5.6 5.9 6.2 6.3 6.7 7.1 7.2 7.2 7.1 6.9 6.7 6.1 6.6 6.5 6.6 6.5 6.0 6.1 5.9 5.8 5.6 5.3 5.2 5.0 4.9 4.8
6.0 6.0 5.9 5.9 5.9 5.9 6.0 6.2 6.2 6.1 5.9 5.7 5.4 5.4 5.1 5.6 5.7 5.6 5.4 5.6 5.7 5.9 6.1 6.4 6.8 7.4 7.7 6.8 6.8 7.4 7.1 7.0 6.5 6.8 6.7 6.7 6.2 5.8 5.8 5.8 5.6 5.1 5.0 5.0 4.9
6.2 6.2 6.3 6.3 6.2 6.1 6.1 6.0 6.0 6.0 6.0 5.8 5.5 5.5 5.6 5.7 5.7 5.4 5.3 5.4 5.8 5.9 6.0 6.4 7.1 7.7 8.0 8.5 7.9 8.3 7.6 6.8 7.8 6.6 6.9 6.9 6.3 6.1 5.9 6.2 6.2 5.7 5.2 5.0 4.8
6.3 6.4 6.5 6.5 6.5 6.4 6.3 5.9 5.6 5.7 5.9 5.8 5.7 5.9 5.8 5.8 5.7 5.9 5.5 5.8 5.8 5.9 6.4 6.6 6.9 7.5 8.1 8.6 8.5 8.7 8.5 8.4 7.7 7.3 7.2 6.9 6.6 6.5 6.6 5.9 6.1 6.1 5.8 5.5 5.1
6.4 6.5 6.6 6.6 6.7 6.7 6.7 6.5 6.1 5.8 5.9 6.2 5.9 6.0 6.1 5.9 5.9 5.9 5.8 6.1 6.0 6.2 6.5 7.1 7.4 7.6 7.7 7.7 8.1 8.7 8.7 8.8 8.1 8.0 7.5 7.8 7.7 6.6 7.2 6.9 6.7 6.9 6.4 6.1 5.7
6.6 6.6 6.6 6.7 6.8 6.8 6.8 6.8 6.9 6.2 6.1 6.5 6.4 6.4 6.3 6.3 6.2 6.3 6.3 6.4 6.4 6.5 6.9 7.0 7.1 7.4 7.2 7.6 7.8 8.5 8.6 8.7 8.5 7.1 8.3 8.0 8.4 8.2 7.6 7.4 6.5 6.8 6.7 6.4 6.1
6.6 6.7 6.7 6.8 6.8 6.8 6.6 6.9 6.6 6.3 6.6 7.0 6.9 6.6 6.8 6.8 6.5 6.6 6.6 6.5 6.7 6.9 7.3 7.5 7.0 6.9 7.2 7.6 7.7 7.5 7.1 7.4 8.2 7.9 8.1 8.3 7.9 8.5 8.0 7.2 7.3 6.8 6.6 6.8 6.2
6.4 6.6 6.7 6.8 6.8 6.8 6.6 6.4 6.4 6.6 6.4 7.5 7.1 7.2 7.2 7.1 7.0 6.8 6.8 6.7 7.0 7.2 7.4 7.8 6.9 6.6 7.2 7.0 7.0 7.2 6.9 7.7 8.0 7.6 7.6 8.1 8.2 9.1 8.8 7.7 8.3 6.7 6.5 6.3 6.1
6.3 6.5 6.7 6.9 6.9 6.9 6.6 6.6 6.7 6.8 7.2 7.9 7.4 7.7 7.4 7.4 7.3 6.8 7.0 6.9 7.1 7.4 7.7 7.3 7.0 7.1 7.2 7.1 7.6 7.6 7.6 7.8 7.8 7.4 7.3 8.1 8.2 9.0 8.0 8.6 8.2 7.2 6.4 6.3 6.4
6.2 6.5 6.7 7.0 6.8 6.8 6.9 6.5 6.6 7.1 8.8 8.7 8.2 7.9 7.7 7.7 7.6 7.4 7.3 7.4 7.4 7.5 7.8 7.9 7.5 7.3 7.3 7.1 7.2 7.4 7.5 7.6 7.0 6.8 6.5 9.1 8.8 8.8 8.7 7.8 7.6 7.5 6.6 6.3 6.7
6.1 6.4 6.8 6.9 6.8 7.1 7.2 6.4 6.7 7.9 8.6 9.2 9.1 8.3 8.2 8.2 8.0 7.9 8.0 8.0 7.9 7.9 7.7 8.6 8.0 7.1 7.4 7.4 7.5 7.5 7.8 7.4 6.9 6.7 8.0 9.0 8.6 7.9 8.2 8.0 7.5 7.1 6.8 6.5 6.5
6.3 6.5 6.9 6.9 6.9 6.9 6.9 6.4 6.9 8.0 9.0 9.6 9.5 9.1 8.8 9.5 8.6 8.1 8.4 8.2 7.7 7.9 8.0 8.0 7.4 7.3 7.3 7.8 7.7 7.7 7.5 7.7 7.9 8.5 8.4 8.6 8.3 8.0 8.0 7.8 7.6 7.4 7.1 6.7 6.8
6.4 6.7 6.9 7.0 6.9 6.7 6.7 6.6 7.4 8.3 9.0 9.5 9.6 9.5 9.6 9.5 9.1 8.6 8.8 8.0 7.6 7.9 8.0 8.0 7.9 7.9 7.4 8.1 7.9 8.0 7.7 8.1 8.0 6.8 7.4 8.7 8.6 8.5 8.1 7.8 7.5 7.3 7.2 7.0 6.9
6.7 6.8 6.6 6.7 6.8 6.6 6.7 7.0 8.1 8.5 8.9 9.5 9.6 9.7 9.6 9.6 9.5 9.2 9.3 8.4 7.7 7.7 8.3 7.9 8.0 8.0 7.6 8.0 7.9 7.9 7.7 7.7 7.8 8.3 7.2 6.6 8.5 8.6 8.4 8.2 7.8 7.5 7.2 7.0 7.0
7.1 7.0 6.8 6.9 6.6 6.4 6.6 7.5 8.2 8.4 9.3 9.7 9.5 9.5 9.6 9.7 9.6 9.4 8.7 7.8 7.2 7.4 7.4 7.0 7.5 7.8 8.2 8.2 8.3 8.2 8.0 7.7 7.6 7.9 8.0 8.3 8.8 8.6 8.4 8.3 8.1 7.9 7.6 7.3 6.9
7.3 7.2 6.8 7.2 7.1 7.1 7.2 7.9 8.0 8.2 9.2 9.5 9.5 9.3 9.6 9.6 9.5 9.2 8.4 7.8 6.8 6.8 7.6 7.4 7.3 7.5 8.2 9.1 8.3 7.9 7.7 7.8 8.0 8.2 8.3 8.2 8.8 8.8 8.6 8.4 8.0 7.8 7.4 6.8 6.3
7.5 7.6 7.2 7.5 7.5 7.6 7.3 7.7 8.3 9.1 9.6 9.3 9.3 9.3 9.3 9.3 9.2 8.9 7.8 7.1 7.1 7.2 7.3 7.3 7.1 7.1 7.4 7.5 7.4 7.6 7.5 7.5 7.8 7.9 8.0 8.3 9.1 8.5 8.3 8.4 8.4 7.9 7.3 6.6 5.9
7.3 7.2 7.2 7.5 7.7 7.9 7.7 8.3 8.8 8.9 9.5 9.4 9.5 9.5 9.2 9.1 8.7 8.6 7.9 7.5 7.3 7.2 7.0 7.0 6.8 6.9 7.0 7.4 7.5 7.6 7.9 8.1 8.2 8.2 8.2 8.2 8.1 7.5 7.5 7.2 7.5 7.1 6.8 6.9 6.5
6.9 7.2 7.6 7.7 7.4 7.9 8.2 8.6 8.9 9.7 9.6 9.1 9.4 9.2 8.9 8.8 8.9 9.0 8.5 8.0 7.3 6.8 7.0 6.9 7.0 7.0 7.1 7.4 7.6 7.8 8.0 8.1 8.2 8.3 8.1 8.0 7.8 6.8 6.9 6.8 6.8 6.6 6.6 6.4 6.2
7.8 7.4 7.7 7.3 7.7 8.3 8.5 8.2 8.5 9.2 9.4 9.1 9.0 9.3 9.0 9.3 9.2 8.6 8.0 7.4 7.4 7.2 7.1 7.0 7.0 7.0 7.1 7.3 7.5 7.6 8.1 8.0 8.0 7.8 7.3 7.1 6.4 6.7 7.0 7.1 6.9 6.4 6.0 6.1 6.1
Wind_Speed
18 18 18 17 17 17 18 17 18 17 16 15 18 18 17 20 23 5 3 3 5 17 3 7 11 14 6 8 11 6 3 3 5 7 15 15 16 12 18 25 22 11 19 17 22
19 19 19 18 17 17 17 18 18 18 17 16 17 18 16 18 5 8 5 7 7 11 4 8 7 10 3 6 3 3 1 4 5 7 15 17 16 12 11 21 21 20 18 19 21
20 20 20 19 19 17 17 18 18 19 18 17 16 17 16 14 4 1 10 6 11 11 8 14 12 8 16 7 4 7 5 4 7 10 11 16 13 16 18 16 21 25 21 19 23
20 20 21 20 20 19 18 18 18 19 18 17 16 16 16 4 3 3 12 8 9 6 10 11 10 3 7 8 9 4 15 9 9 11 7 5 15 15 11 20 23 18 17 15 12
22 22 22 21 20 20 20 19 20 18 17 16 14 13 5 3 6 7 10 7 7 5 13 15 10 4 3 8 7 6 3 11 11 10 9 10 13 16 16 20 21 18 14 14 13
23 22 22 23 21 20 21 21 20 18 15 14 12 10 3 4 7 14 10 8 9 12 16 14 6 10 7 6 6 9 14 7 11 9 6 7 7 10 15 19 19 16 12 10 11
23 24 23 23 24 22 21 21 20 16 12 10 8 5 5 9 13 14 10 7 11 15 10 10 11 7 10 11 8 10 5 4 6 2 2 5 5 6 16 15 17 16 14 13 10
24 24 24 24 24 24 23 23 21 16 10 8 5 4 6 0 1 14 12 12 15 12 10 7 10 8 6 16 8 9 2 2 5 7 3 1 4 10 7 16 13 16 15 13 10
26 25 25 25 25 24 25 27 21 13 6 2 2 3 7 2 5 6 9 10 8 9 8 10 6 6 9 5 4 2 3 5 6 8 8 4 4 13 13 17 15 14 12 12 11
25 26 25 26 25 24 29 20 6 10 5 7 8 4 7 7 7 9 7 3 6 7 7 7 5 6 7 6 5 6 6 11 7 10 9 10 7 13 17 19 17 15 14 12 11
27 27 27 27 25 20 13 5 2 1 6 8 6 6 9 6 6 4 5 4 7 6 7 8 4 8 9 7 2 4 6 10 7 8 9 11 12 19 17 16 18 16 15 13 14
28 28 29 29 27 19 4 3 8 6 7 17 17 7 4 8 6 10 4 3 6 7 8 6 7 10 7 7 7 8 8 6 5 8 6 6 5 19 20 16 20 19 17 15 12
30 30 30 32 32 5 6 10 10 9 4 9 9 8 7 2 9 9 10 7 8 6 10 7 5 6 7 7 7 7 5 7 4 6 7 4 6 10 16 11 13 17 18 16 15
29 29 28 35 4 6 5 14 11 4 3 6 8 5 5 7 4 7 0 3 3 9 10 8 5 6 5 4 4 5 8 10 9 5 3 3 5 6 16 16 16 14 14 15 14
30 30 28 12 8 5 10 15 7 4 3 12 7 6 9 7 5 3 2 5 9 10 3 3 9 3 0 5 7 2 9 7 6 7 7 13 2 7 21 7 6 9 15 7 12
30 28 26 2 3 10 16 16 3 2 6 7 6 7 5 7 5 5 5 6 7 4 7 2 4 5 3 6 4 7 5 8 5 2 3 12 6 7 14 9 6 12 9 10 8
35 28 11 8 5 12 11 6 0 4 5 7 10 8 9 9 6 6 7 6 4 2 6 5 6 6 3 3 5 5 3 3 3 0 6 7 2 2 16 19 17 14 15 11 14
38 34 9 6 12 11 7 2 5 9 11 2 7 10 9 9 7 6 6 5 2 7 4 3 4 8 3 5 3 5 2 4 3 3 6 8 6 1 18 17 18 17 15 13 16
38 2 4 5 18 4 2 4 6 6 9 4 7 6 8 5 5 0 5 7 7 8 5 6 4 6 10 5 4 7 4 6 1 5 4 2 6 7 9 14 17 17 15 12 11
5 4 7 8 11 3 1 8 9 13 21 13 5 7 8 8 5 6 4 5 5 7 6 5 3 7 6 1 4 3 3 5 5 4 4 4 4 7 7 12 15 14 12 10 10
3 4 6 14 7 2 4 7 12 19 19 10 3 4 4 8 10 6 3 8 8 7 4 5 3 5 3 5 4 1 3 3 2 4 2 3 4 8 10 13 13 11 10 10 9
5 4 3 5 2 2 6 9 12 21 25 0 5 7 5 1 7 6 11 7 9 5 5 7 2 3 5 4 7 6 3 3 4 7 2 3 2 7 11 11 10 9 8 7 8
5 4 0 3 2 4 6 15 18 19 17 2 3 4 7 3 4 13 9 8 13 8 3 5 4 4 7 4 10 4 4 2 2 1 3 4 4 9 10 17 17 18 11 9 9
3 3 1 2 2 3 6 12 9 19 2 3 4 4 6 6 8 7 11 7 13 6 4 4 2 1 3 2 4 6 9 8 4 2 3 4 1 17 14 16 15 13 10 10 9
3 3 5 3 2 5 3 10 17 20 4 4 4 5 6 2 7 2 12 9 8 6 3 2 1 5 8 8 7 7 8 9 6 6 2 7 8 8 9 9 8 8 11 13 12
3 4 5 6 5 5 4 8 16 2 4 6 6 3 2 1 3 5 4 6 6 6 6 3 2 3 5 8 9 7 7 8 8 6 6 7 8 8 9 10 9 9 8 6 8
5 5 3 6 5 4 3 11 15 15 7 15 5 12 14 13 15 9 9 9 8 6 3 3 3 5 4 8 9 6 5 6 6 13 7 8 4 10 13 13 10 7 10 13 15
Wind_Direction
352 348 342 339 334 330 326 323 320 319 319 320 317 321 329 325 313 163 253 148 187 192 207 271 219 241 153 100 133 181 232 261 122 133 105 92 97 93 124 134 150 120 137 144 129
351 345 340 337 333 329 323 319 317 315 316 320 319 321 328 334 297 260 142 166 193 151 224 241 246 234 74 54 111 208 294 261 132 86 124 127 128 126 111 106 117 127 141 147 130
349 343 339 337 333 328 321 316 313 311 313 317 317 320 322 323 293 196 171 193 177 176 251 279 279 275 103 150 190 174 218 84 66 107 92 125 129 131 123 126 136 145 152 152 139
344 340 337 337 331 327 320 314 310 307 309 313 314 318 315 264 6 112 155 185 191 239 260 279 268 229 120 156 196 172 235 72 58 31 68 91 100 77 131 136 133 136 144 146 153
340 338 335 333 330 324 318 312 308 305 306 308 309 320 327 215 253 140 152 181 196 246 257 265 290 212 185 173 170 185 177 91 70 60 48 39 93 98 102 126 128 141 146 156 158
340 338 333 330 328 323 316 312 308 306 305 303 305 314 239 271 119 150 170 159 243 225 267 270 288 342 305 151 56 74 71 62 90 71 58 54 11 102 115 127 135 149 150 179 165
342 338 335 331 328 324 318 311 308 304 301 298 299 284 269 263 142 165 179 194 219 245 280 335 344 333 312 96 96 91 111 120 83 100 121 83 12 110 130 133 145 157 168 189 172
341 336 333 330 327 325 319 309 304 298 295 284 268 268 253 262 21 176 196 211 227 245 270 289 285 302 269 126 62 80 355 301 153 126 305 159 210 236 181 143 161 170 179 185 173
344 337 333 328 325 325 316 306 291 281 238 253 235 232 275 42 270 204 212 236 226 228 261 271 280 247 293 188 89 271 213 213 149 226 151 127 188 228 188 156 172 175 180 179 175
339 339 334 326 325 326 319 292 286 314 194 212 261 281 251 210 211 217 250 321 318 324 296 251 264 253 275 255 193 180 212 191 159 181 176 185 187 195 176 168 175 178 175 177 174
340 336 332 329 324 327 342 340 326 5 235 211 197 217 176 82 62 301 216 198 245 287 279 282 248 252 300 109 101 336 293 139 175 180 183 196 203 174 183 179 174 180 177 179 173
341 338 334 327 319 317 273 261 273 280 287 231 258 254 5 136 186 238 169 250 212 240 251 285 249 275 93 53 17 332 320 151 147 168 174 198 214 176 185 194 181 179 176 178 171
340 339 335 326 317 288 215 245 285 303 272 287 209 227 181 271 250 195 149 231 255 271 266 237 292 48 39 15 6 319 4 6 135 204 224 193 269 170 185 183 182 184 175 176 172
335 336 338 329 332 336 266 254 247 267 319 251 202 191 129 204 251 88 62 332 264 230 262 250 111 47 13 340 320 44 10 12 1 36 284 51 270 196 174 187 204 176 168 178 168
333 331 329 323 305 290 289 321 360 38 288 146 167 138 177 199 127 148 178 292 267 285 304 341 39 114 78 14 31 90 25 349 328 330 353 299 30 284 161 177 198 46 78 24 93
326 324 330 127 214 248 291 297 26 354 247 179 131 177 197 238 172 139 196 224 271 277 322 88 86 10 58 6 19 334 338 309 274 212 300 248 160 291 172 144 106 112 80 66 80
320 313 307 299 245 331 315 284 111 227 172 155 164 162 200 202 178 173 195 217 208 221 250 223 157 96 50 289 264 225 332 309 342 334 222 228 11 230 102 118 132 134 136 166 135
319 312 233 218 257 299 316 12 239 250 246 174 169 165 195 202 176 212 183 232 193 31 308 218 88 135 184 85 10 315 59 136 304 352 267 343 122 65 118 116 114 123 137 144 151
318 213 226 228 220 240 293 234 215 253 276 291 155 142 220 103 74 92 265 84 46 55 39 25 82 91 62 27 55 325 62 255 311 284 34 81 43 46 87 93 88 83 75 67 68
312 274 245 213 185 217 219 240 247 256 269 294 157 190 204 135 120 175 231 96 93 60 38 319 13 136 134 196 223 183 286 16 352 10 338 25 141 175 115 88 85 77 66 51 51
259 276 239 195 150 190 220 242 268 262 271 270 257 235 282 165 157 220 72 76 76 91 58 343 34 310 113 203 183 319 348 356 158 138 144 33 312 101 104 102 92 85 79 68 59
309 292 68 114 136 219 247 256 274 282 293 96 327 304 281 166 164 103 66 74 49 67 52 355 1 340 274 341 94 92 65 75 99 308 349 136 342 76 58 61 80 81 90 85 80
309 275 120 93 211 256 293 273 289 296 277 360 276 328 5 37 84 104 91 65 56 51 62 343 346 343 308 18 26 25 89 16 335 115 282 111 231 71 56 60 53 45 33 34 49
280 304 31 95 267 313 337 308 297 303 105 187 275 22 67 50 63 110 128 96 93 100 87 66 293 270 218 309 1 352 343 352 28 48 298 240 257 34 44 60 50 44 35 31 25
242 306 4 322 270 206 324 300 296 291 199 171 61 90 93 1 101 46 105 122 113 137 83 76 291 345 337 343 334 313 307 310 315 287 279 286 49 57 52 56 52 53 37 21 1
331 349 351 297 358 357 286 279 321 229 82 69 64 29 167 96 158 154 139 163 140 214 153 202 263 320 320 299 300 322 311 281 233 263 278 356 58 33 55 46 36 31 38 18 331
346 339 335 283 334 336 289 5 10 3 106 61 20 52 46 24 73 56 76 72 102 97 45 64 50 21 309 333 339 327 283 26 49 70 63 55 31 23 27 20 11 3 16 8 4